Location: Invercargill
(46.4000°S, 168.3500°E)
Time: 19:45:05
(UTC+12:00)

CORIOLIS - Pass Details

Date: 14 May 2021
Orbit: 817 x 839 km, 98.7° (Epoch: 14 June)

Event Time Altitude Azimuth Distance (km) Brightness Sun altitude
Rises 18:54:50 0° 162° (SSE) 3,423 7.1 -15.4°
Reaches altitude 10° 18:57:17 10° 156° (SSE) 2,485 6.3 -15.8°
Maximum altitude 19:02:40 52° 80° (E) 1,052 4.3 -16.8°
Drops below altitude 10° 19:07:59 10° 4° (N) 2,462 6.7 -17.7°
Sets 19:10:24 0° 359° (N) 3,389 7.5 -18.1°
